Harlan, KY

3:32 AM EDT on September 21, 2019 (GMT -0400)
Harlan

Weather History for KI35 - August, 2019

Change the Weather History Date:

Thursday, August 22, 2019

  Actual Average (WUND) Record (WUND)
Temperature  
Mean Temperature 76 °F -  
Max Temperature 84 °F - - (-1)
Min Temperature 68 °F - - (-1)
Cooling Degree Days 10    
Growing Degree Days 26 (Base 50)    
Moisture  
Dew Point 69 °F    
Average Humidity 91    
Maximum Humidity 100    
Minimum Humidity 62    
Precipitation  
Precipitation 0.00 in - - ()
Sea Level Pressure  
Sea Level Pressure 30.07 in    
Wind  
Wind Speed 1 mph ()    
Max Wind Speed 21 mph    
Max Gust Speed 26 mph    
Visibility 6.3 miles    
Events      
Averages and records for this station are not official NWS values.
T = Trace of Precipitation, MM = Missing Value Source: Averaged Metar Reports

Daily Weather History Graph

Daily Weather History Graph

Search for Another Location

Airport or City:

Astronomy

Aug. 22, 2019 Rise Set
Actual Time 6:56 AM EDT 8:16 PM EDT
Civil Twilight 6:28 AM EDT 8:43 PM EDT
Nautical Twilight 5:56 AM EDT 9:15 PM EDT
Astronomical Twilight 5:22 AM EDT 9:49 PM EDT
Moon No Moon Rise 1:20 PM EDT (8/22)
Length of Visible Light 14h 14m
Length of Day
13h 19m
Waning Gibbous, 60% of the Moon is Illuminated
Aug 22
Waning Gibbous
Aug 23
Last Quarter
Aug 30
New
Sep 5
First Quarter
Sep 14
Full

Hourly Weather History & Observations

Time (EDT) Temp. Heat Index Dew Point Humidity Pressure Visibility Wind Dir Wind Speed Gust Speed Precip Events Conditions
12:15 AM 70.9 °F - 70.2 °F 98% 30.09 in 7.0 mi Calm Calm - N/A   Clear
12:35 AM 70.9 °F - 70.0 °F 97% 30.09 in 7.0 mi Calm Calm - N/A   Clear
12:55 AM 70.7 °F - 69.8 °F 97% 30.08 in 7.0 mi Calm Calm - N/A   Mostly Cloudy
1:15 AM 70.2 °F - 69.8 °F 99% 30.07 in 7.0 mi Calm Calm - N/A   Mostly Cloudy
1:35 AM 69.8 °F - 69.3 °F 98% 30.07 in 5.0 mi Calm Calm - N/A   Mostly Cloudy
1:55 AM 69.8 °F - 69.3 °F 98% 30.06 in 7.0 mi Calm Calm - N/A   Scattered Clouds
2:15 AM 69.4 °F - 68.9 °F 98% 30.06 in 5.0 mi Calm Calm - N/A   Mostly Cloudy
2:35 AM 69.6 °F - 69.1 °F 98% 30.06 in 5.0 mi Calm Calm - N/A   Overcast
2:55 AM 69.4 °F - 69.1 °F 99% 30.05 in 1.0 mi Calm Calm - N/A   Overcast
3:15 AM 69.3 °F - 68.9 °F 99% 30.05 in 5.0 mi Calm Calm - N/A   Overcast
3:35 AM 69.3 °F - 68.9 °F 99% 30.05 in 3.0 mi Calm Calm - N/A   Overcast
3:55 AM 68.9 °F - 68.9 °F 100% 30.05 in 1.0 mi Calm Calm - N/A   Overcast
4:15 AM 68.9 °F - 68.7 °F 99% 30.05 in 0.5 mi Calm Calm - N/A   Overcast
4:35 AM 68.5 °F - 68.4 °F 99% 30.06 in 0.5 mi Calm Calm - N/A   Overcast
4:55 AM 68.4 °F - 68.2 °F 99% 30.06 in 0.2 mi Calm Calm - N/A   Overcast
5:15 AM 68.7 °F - 68.5 °F 99% 30.07 in 0.5 mi Calm Calm - N/A   Overcast
5:35 AM 68.5 °F - 68.4 °F 99% 30.07 in 0.2 mi Calm Calm - N/A   Overcast
5:55 AM 68.4 °F - 68.2 °F 99% 30.08 in 0.2 mi Calm Calm - N/A   Overcast
6:15 AM 68.4 °F - 68.4 °F 100% 30.09 in 0.5 mi Calm Calm - N/A   Overcast
6:55 AM 68.2 °F - 68.2 °F 100% 30.09 in 0.5 mi Calm Calm - N/A   Overcast
7:15 AM 68.2 °F - 68.2 °F 100% 30.09 in 0.2 mi Calm Calm - N/A   Overcast
7:35 AM 68.0 °F - 68.0 °F 100% 30.09 in 0.5 mi Calm Calm - N/A   Overcast
7:55 AM 68.2 °F - 68.0 °F 99% 30.09 in 1.0 mi Calm Calm - N/A   Overcast
8:15 AM 68.2 °F - 68.0 °F 99% 30.09 in 0.5 mi Calm Calm - N/A   Overcast
8:35 AM 68.9 °F - 68.2 °F 98% 30.10 in 4.0 mi Calm Calm - N/A   Overcast
8:50 AM 69.1 °F - 68.4 °F 98% 30.10 in 7.0 mi Calm Calm - N/A   Overcast
9:15 AM 70.3 °F - 68.5 °F 94% 30.10 in 10.0 mi Calm Calm - N/A   Mostly Cloudy
9:35 AM 72.3 °F - 69.8 °F 92% 30.10 in 7.0 mi Calm Calm - N/A   Mostly Cloudy
9:55 AM 72.1 °F - 69.6 °F 92% 30.10 in 10.0 mi Calm Calm - N/A   Scattered Clouds
10:15 AM 75.4 °F - 70.3 °F 84% 30.11 in 10.0 mi WSW 3.5 mph - N/A   Clear
10:55 AM 78.4 °F - 70.3 °F 76% 30.11 in 10.0 mi Calm Calm - N/A   Clear
11:15 AM 79.9 °F - 69.4 °F 70% 30.11 in 10.0 mi SW 3.5 mph - N/A   Scattered Clouds
11:35 AM 81.3 °F 84.8 °F 70.0 °F 68% 30.10 in 10.0 mi WSW 3.5 mph - N/A   Scattered Clouds
11:55 AM 80.2 °F 83.3 °F 69.8 °F 70% 30.10 in 10.0 mi Calm Calm - N/A   Mostly Cloudy
12:15 PM 81.5 °F 84.6 °F 68.9 °F 65% 30.10 in 10.0 mi SSW 3.5 mph - N/A   Scattered Clouds
12:35 PM 82.9 °F 86.3 °F 68.5 °F 62% 30.10 in 10.0 mi South 4.6 mph - N/A   Mostly Cloudy
12:55 PM 83.3 °F 86.9 °F 68.9 °F 62% 30.09 in 10.0 mi Calm Calm - N/A   Mostly Cloudy
1:35 PM 72.0 °F - 69.1 °F 91% 30.12 in 0.5 mi WNW 4.6 mph 19.6 mph N/A   Overcast
1:55 PM 72.0 °F - 68.9 °F 90% 30.10 in 10.0 mi NW 3.5 mph - N/A   Mostly Cloudy
2:15 PM 72.1 °F - 68.2 °F 87% 30.09 in 10.0 mi Calm Calm - N/A   Clear
2:35 PM 73.4 °F - 68.2 °F 84% 30.08 in 10.0 mi Calm Calm - N/A   Clear
2:55 PM 76.3 °F - 67.1 °F 73% 30.06 in 10.0 mi Calm Calm - N/A   Clear
3:15 PM 79.0 °F - 68.9 °F 71% 30.06 in 10.0 mi Calm Calm - N/A   Clear
3:35 PM 79.9 °F - 69.4 °F 70% 30.05 in 10.0 mi Calm Calm - N/A   Clear
3:55 PM 81.0 °F 84.9 °F 71.1 °F 72% 30.03 in 10.0 mi Calm Calm - N/A   Clear
4:15 PM 80.8 °F 84.1 °F 69.8 °F 69% 30.04 in 10.0 mi West 3.5 mph - N/A   Clear
4:35 PM 79.2 °F - 70.3 °F 74% 30.05 in 5.0 mi NW 20.7 mph 26.5 mph N/A   Mostly Cloudy
4:55 PM 72.1 °F - 68.5 °F 88% 30.05 in 10.0 mi WSW 4.6 mph - N/A   Mostly Cloudy
5:15 PM 72.7 °F - 69.8 °F 91% 30.04 in 10.0 mi Calm Calm - N/A   Mostly Cloudy
5:35 PM 75.2 °F - 69.6 °F 83% 30.04 in 10.0 mi Calm Calm - N/A   Scattered Clouds
6:15 PM 73.0 °F - 67.8 °F 84% 30.05 in 10.0 mi Calm Calm - N/A   Clear
6:35 PM 73.0 °F - 69.6 °F 89% 30.06 in 10.0 mi SW 3.5 mph - N/A   Scattered Clouds
6:55 PM 73.0 °F - 69.8 °F 90% 30.05 in 10.0 mi Calm Calm - N/A   Scattered Clouds
7:15 PM 72.0 °F - 70.5 °F 95% 30.05 in 10.0 mi Calm Calm - N/A   Scattered Clouds
7:35 PM 72.3 °F - 71.2 °F 96% 30.05 in 4.0 mi Calm Calm - N/A   Mostly Cloudy
7:55 PM 72.5 °F - 70.9 °F 95% 30.04 in 10.0 mi Calm Calm - N/A   Mostly Cloudy
8:15 PM 71.2 °F - 70.7 °F 98% 30.04 in 10.0 mi Calm Calm - N/A   Mostly Cloudy
8:35 PM 70.9 °F - 70.7 °F 99% 30.03 in 7.0 mi Calm Calm - N/A   Overcast
8:55 PM 70.2 °F - 69.6 °F 98% 30.04 in 10.0 mi Calm Calm - N/A   Mostly Cloudy
9:15 PM 69.8 °F - 69.3 °F 98% 30.05 in 10.0 mi Calm Calm - N/A   Mostly Cloudy
9:35 PM 69.8 °F - 69.3 °F 98% 30.06 in 10.0 mi Calm Calm - N/A   Mostly Cloudy
9:55 PM 70.0 °F - 69.4 °F 98% 30.06 in 7.0 mi Calm Calm - N/A   Overcast
10:15 PM 70.0 °F - 69.4 °F 98% 30.06 in 5.0 mi Calm Calm - N/A   Overcast
10:35 PM 69.8 °F - 69.6 °F 99% 30.06 in 3.0 mi Calm Calm - N/A   Overcast
10:55 PM 69.4 °F - 69.3 °F 99% 30.05 in 4.0 mi Calm Calm - N/A   Mostly Cloudy
11:15 PM 69.3 °F - 69.1 °F 99% 30.05 in 3.0 mi Calm Calm - N/A   Overcast
11:35 PM 69.3 °F - 68.9 °F 99% 30.05 in 5.0 mi Calm Calm - N/A   Overcast
11:55 PM 69.3 °F - 69.1 °F 99% 30.05 in 2.5 mi Calm Calm - N/A   Overcast